Home > Weather > Helsinki > Past weeks

Flag for Finland Past Weather in Helsinki, Finland — Yesterday and Last 2 Weeks

Now
73 °F

Scattered clouds.


Feels Like: 76 °F
Forecast: 64 / 70 °F
Wind: 7 mph from Southwest

Location: Helsinki Malmi Airport

Current Time: Jul 30, 2016 at 4:11:42 PM

Latest Report: Jul 30, 2016 at 3:20 PM


Visibility: N/A

Pressure: 29.71 "Hg

Humidity: 61%

Dew Point: 59 °F

Location of HelsinkiLocation

Past Weather in Helsinki — Graph

°F

Helsinki Temperature Yesterday

Maximum temperature yesterday: 73 °F (at 5:20 PM)
Minimum temperature yesterday: 59 °F (at 1:20 AM)
Average temperature yesterday: 65 °F

High & Low Weather Summary for the Past Weeks

 TemperatureHumidityPressure
High77 °F (Jul 27, 4:20 PM)100% (Jul 15, 5:50 PM)30.12 "Hg (Jul 15, 5:50 PM)
Low50 °F (Jul 20, 1:50 AM)40% (Jul 19, 2:20 PM)29.59 "Hg (Jul 15, 5:50 PM)
Average65 °F79%29.93 "Hg
* Reported Jul 15 2:20 PM — Jul 30 2:50 PM, Helsinki, Weather by CustomWeather, © 2016

Note: Actual official high and low records may vary slightly from our data, if they occured in-between our weather recording intervals... More about our weather records

Advertising

Helsinki Weather History for the Previous 24 Hours

Scroll right to see more
 ConditionsComfort  
Time TempWeatherWind HumidityBarometerVisibility
2:50 PM
Sat, Jul 30
73 °FScattered clouds.8 mph65%29.71 "HgN/A
2:20 PM73 °FScattered showers. Broken clouds.8 mph61%29.71 "HgN/A
1:50 PM72 °FScattered showers. Broken clouds.8 mph69%29.71 "HgN/A
1:20 PM73 °FScattered showers. Broken clouds.9 mph65%29.71 "HgN/A
12:50 PM73 °FScattered showers. Partly sunny.10 mph61%29.71 "HgN/A
12:20 PM73 °FPartly sunny.5 mph65%29.71 "HgN/A
11:50 AM72 °FScattered clouds.5 mph69%29.71 "HgN/A
11:20 AM73 °FPassing clouds.3 mph61%29.71 "HgN/A
10:50 AM73 °FSunny.2 mph65%29.71 "Hg10 mi
10:20 AM70 °FSunny.1 mph73%29.74 "Hg10 mi
9:50 AM68 °FSunny.2 mph83%29.74 "Hg10 mi
9:20 AM68 °FScattered clouds.3 mph78%29.74 "HgN/A
8:50 AM66 °FScattered clouds.3 mph83%29.74 "HgN/A
8:20 AM64 °FScattered clouds.2 mph88%29.74 "HgN/A
7:50 AM63 °FPartly sunny.2 mph94%29.74 "HgN/A
7:20 AM61 °FSunny.2 mph94%29.74 "Hg10 mi
6:50 AM59 °FBroken clouds.No wind100%29.77 "HgN/A
6:20 AM57 °FScattered clouds.No wind100%29.77 "Hg6 mi
5:50 AM59 °FFog.No wind94%29.77 "Hg1 mi
5:20 AM59 °FClear.No wind94%29.77 "Hg10 mi
4:50 AM59 °FFog.No wind94%29.77 "Hg2 mi
4:20 AM59 °FClear.No wind100%29.77 "Hg10 mi
3:50 AM57 °FLight fog.No wind100%29.77 "Hg0 mi
3:20 AM59 °FFog.No wind100%29.77 "Hg2 mi
2:50 AM59 °FClear.No wind100%29.77 "Hg10 mi
2:20 AM59 °FClear.No wind100%29.77 "Hg10 mi
1:50 AM59 °FClear.No wind100%29.80 "Hg10 mi
1:20 AM59 °FClear.No wind100%29.80 "Hg10 mi
12:50 AM59 °FClear.1 mph100%29.80 "Hg10 mi
12:20 AM61 °FClear.1 mph94%29.80 "Hg10 mi
11:50 PM
Fri, Jul 29
61 °FClear.No wind94%29.80 "Hg10 mi
11:20 PM63 °FPassing clouds.No wind88%29.80 "Hg3 mi
10:50 PM63 °FFog.1 mph94%29.80 "Hg1 mi
10:20 PM64 °FSunny.No wind88%29.80 "Hg10 mi
9:50 PM68 °FSunny.2 mph73%29.80 "Hg10 mi
9:20 PM68 °FSunny.3 mph73%29.80 "Hg10 mi
8:50 PM68 °FSunny.5 mph73%29.80 "Hg10 mi
8:20 PM70 °FPassing clouds.6 mph73%29.80 "HgN/A
7:50 PM70 °FPartly sunny.7 mph69%29.80 "HgN/A
7:20 PM72 °FPassing clouds.8 mph69%29.80 "HgN/A
6:50 PM72 °FPassing clouds.8 mph69%29.80 "HgN/A
6:20 PM72 °FSunny.9 mph65%29.80 "Hg10 mi
5:50 PM72 °FPassing clouds.9 mph65%29.80 "HgN/A
5:20 PM73 °FScattered clouds.10 mph61%29.80 "HgN/A
4:50 PM72 °FPartly sunny.9 mph65%29.83 "HgN/A
4:20 PM72 °FPartly sunny.8 mph65%29.83 "HgN/A
Weather by CustomWeather, © 2016

See weather overviewHow to use our weather pages